Preview of NWS' New Version of Forecast
This preview is not operational and should not be used for support decisions.

Regional Weather Roundup (RWR)

Issued by Gray - Portland, ME (GYX)

                            
000
ASUS41 KGYX 240010
RWRGYX
WEATHER ROUNDUP FOR MAINE AND NEW HAMPSHIRE
NATIONAL WEATHER SERVICE GRAY ME
800 PM EDT THU MAY 23 2019

MEZ002-005-006-010-012-015-018-020-021-024-026-027-029-240100-
MAINE
  
CITY           SKY/WX    TMP DP  RH WIND       PRES   REMARKS
PORTLAND       CLOUDY    55  48  77 S9        29.85F                  
6HR MIN TEMP:  55; 6HR MAX TEMP:  64; 6HR PCP: TRACE;                

SANFORD        LGT RAIN  58  51  78 S6        29.83F                  
BAR HARBOR     FAIR      50  45  83 SE7       29.94F                  
WISCASSET      CLOUDY    53  48  83 VRB3      29.88F                  
6HR MIN TEMP:  52; 6HR MAX TEMP:  58; 6HR PCP: TRACE;                

ROCKLAND       MOCLDY    49  46  90 S7        29.89F                  
FRYEBURG       LGT RAIN  59  53  80 CALM      29.82F                  
6HR MIN TEMP:  59; 6HR MAX TEMP:  71; 6HR PCP:  0.01;                

LEWISTONAUBURN LGT RAIN  54  49  83 SE7       29.84F                  
AUGUSTA        LGT RAIN  54  48  80 S8        29.86F                  
6HR MIN TEMP:  54; 6HR MAX TEMP:  61; 6HR PCP: TRACE;                

WATERVILLE     MOCLDY    54  48  80 VRB5      29.83F                  
BANGOR         CLOUDY    53  47  79 SE7       29.90F                  
6HR MIN TEMP:  53; 6HR MAX TEMP:  67; 6HR PCP: TRACE;                

GREENVILLE       N/A     53  45  74 SE8       29.83F                  
6HR MIN TEMP:  53; 6HR MAX TEMP:  65;                                

MILLINOCKET    CLOUDY    59  43  55 S6        29.90F                  
6HR MIN TEMP:  59; 6HR MAX TEMP:  68; 6HR PCP: TRACE;                

HOULTON        CLOUDY    58  43  57 SE7       29.90F                  
6HR MIN TEMP:  58; 6HR MAX TEMP:  66; 6HR PCP: TRACE;                

PRESQUE ISLE   LGT RAIN  59  42  53 S9        29.91F                  
6HR MIN TEMP:  59; 6HR MAX TEMP:  66; 6HR PCP: TRACE;                

FRENCHVILLE    LGT RAIN  61  40  45 SE13G18   29.88F                  
6HR MIN TEMP:  60; 6HR MAX TEMP:  66; 6HR PCP: TRACE;                

CARIBOU        CLOUDY    60  41  49 S8        29.89F                  
6HR MIN TEMP:  60; 6HR MAX TEMP:  67;                                

$$

NHZ002-005-008-009-011-012-014-240100-
NEW HAMPSHIRE
  
CITY           SKY/WX    TMP DP  RH WIND       PRES   REMARKS
PORTSMOUTH     MOCLDY    60  50  69 S8        29.82F                  
ROCHESTER      CLOUDY    62  49  62 VRB6      29.82F                  
6HR MIN TEMP:  62; 6HR MAX TEMP:  72; 6HR PCP: TRACE;                

NASHUA         CLOUDY    62  55  77 VRB6      29.86F                  
MANCHESTER     LGT RAIN  63  53  70 S12G18    29.83F                  
6HR MIN TEMP:  63; 6HR MAX TEMP:  72; 6HR PCP: TRACE;                

CONCORD        CLOUDY    61  53  75 SE7       29.82F                  
6HR MIN TEMP:  61; 6HR MAX TEMP:  72; 6HR PCP:  0.04;                

LACONIA        LGT RAIN  61  56  83 S5        29.82F                  
PLYMOUTH       RAIN      60  58  92 CALM      29.81F                  
BERLIN         NOT AVBL                                               
WHITEFIELD     LGT RAIN  59  51  75 SW9       29.76F                  
6HR MIN TEMP:  59; 6HR MAX TEMP:  69; 6HR PCP:  0.01;                

JAFFREY        CLOUDY    60  52  74 S8        29.85F                  
6HR MIN TEMP:  60; 6HR MAX TEMP:  67; 6HR PCP: TRACE;                

KEENE          CLOUDY    61  54  77 S9        29.83F                  
LEBANON        LGT RAIN  60  56  86 S7        29.77F FOG              
6HR MIN TEMP:  60; 6HR MAX TEMP:  75; 6HR PCP:  0.12;                

MT WASHINGTON  LGT RAIN  41  41 100 S26G36      N/A  VSB 0            
6HR MIN TEMP:  40; 6HR MAX TEMP:  44; 6HR PCP:  0.03;                

$$

VTZ005-007-008-240100-
VERMONT
  
CITY           SKY/WX    TMP DP  RH WIND       PRES   REMARKS
ST JOHNSBURY     N/A     59  58  96 MISG      29.74F                  
MONTPELIER     LGT RAIN  60  56  86 S13G18    29.78F                  
BURLINGTON     MOCLDY    63  59  87 S18G28    29.68F                  
$$

MAZ007-012-024-CTZ003-RIZ002-NYZ038-NYZ072-240100-
SOUTHERN NEW ENGLAND AND NY
  
CITY           SKY/WX    TMP DP  RH WIND       PRES   REMARKS
BOSTON         CLOUDY    62  54  74 SW15      29.86F                  
WORCESTER      RAIN      56  55  97 S9        29.86F FOG              
NANTUCKET      LGT RAIN  56  52  86 S18       29.97F                  
PROVIDENCE     CLOUDY    60  56  86 SW15G22   29.91S                  
HARTFORD       MOCLDY    65  55  70 S8        29.85F                  
ALBANY         MOCLDY    68  57  68 S16G22    29.75F                  
NEW YORK CITY  MOCLDY    67  60  78 S10       29.89F                  
$$

ANZ081-ANZ082-ANZ150-NHZ014-MEZ023>029-240100-
COASTAL MARINE OBSERVATIONS
  
STATION/POSITION TIME  TEMP    WIND        PRES    WAVE
                       AIR SEA DIR/SP/G            HT/PER
                 (UTC) (F)     (DEG/KT/KT) (MB)    (FT/S)
ISLE OF SHOALS   2300   57     170/ 21/ 22 1011.3F
JEFFREYS LEDGE   2338      48                N/A     3/ 5
GEORGES BANK BUO 2350   49 45  190/ 10/ 12 1020.0F   3/ 9
$$

.............KEY..............
   WCI - WIND CHILL
   TC  - TEMPERATURE IN CELSIUS
   VSB - VISIBILITY IN MILES
   HX  - HEAT INDEX
   FAIR- INDICATES FEW OR NO CLOUDS BELOW 12,000 FT, WITH NO 
         SIGNIFICANT WEATHER AND/OR OBSTRUCTIONS TO VISIBILITY.